Flag for India

Past Weather in 22°43'19"N, 71°38'27"E, India — Yesterday and Last 2 Weeks

Now
84 °F

Fog.


Feels Like: 98 °F
Forecast: 91 / 81 °F
Wind: No wind

Location: Ahmadabad Airport

Current Time: Aug 10, 2020 at 10:10:21 pm

Latest Report: Aug 10, 2020 at 9:30 pm


Visibility: 2 mi

Pressure: 29.59 "Hg

Humidity: 89%

Dew Point: 81 °F

Location of 22°43'19"N, 71°38'27"ELocation

Past Weather in 22°43'19"N, 71°38'27"E — Graph

°F

22°43'19"N, 71°38'27"E Temperature Yesterday

Maximum temperature yesterday: 84 °F (at 4:00 pm)
Minimum temperature yesterday: 77 °F (at 11:00 pm)
Average temperature yesterday: 80 °F

High & Low Weather Summary for the Past Weeks

 TemperatureHumidityPressure
High99 °F (Jul 31, 4:30 pm)100% (Aug 5, 8:00 pm)29.77 "Hg (Aug 5, 8:00 pm)
Low77 °F (Aug 5, 8:00 pm)53% (Jul 31, 4:30 pm)29.27 "Hg (Aug 6, 5:30 pm)
Average86 °F81%29.54 "Hg
* Reported Jul 26 8:30 pm — Aug 10 8:30 pm, 22°43'19"N, 71°38'27"E. Weather by CustomWeather, © 2020

Note: Actual official high and low records may vary slightly from our data, if they occured in-between our weather recording intervals... More about our weather records

22°43'19"N, 71°38'27"E Weather History for the Previous 24 Hours

Scroll right to see more
 ConditionsComfort  
Time TempWeatherWind HumidityBarometerVisibility
8:30 pm
Mon, Aug 10
84 °FPartly cloudy.No wind84%29.56 "Hg1 mi
7:30 pm82 °FDrizzle. Broken clouds.7 mph84%29.56 "Hg1 mi
7:00 pm86 °FLight rain. Broken clouds.2 mph89%29.56 "Hg1 mi
6:30 pm88 °FFog.2 mph84%29.53 "Hg1 mi
6:00 pm88 °FFog.No wind79%29.53 "Hg1 mi
5:30 pm88 °FFog.2 mph79%29.53 "Hg1 mi
5:00 pm88 °FFog.3 mph79%29.53 "Hg1 mi
4:30 pm88 °FBroken clouds.3 mph84%29.53 "Hg1 mi
4:00 pm88 °FBroken clouds.5 mph84%29.53 "Hg1 mi
3:30 pm88 °FBroken clouds.3 mph84%29.53 "Hg1 mi
3:00 pm88 °FFog.5 mph84%29.56 "Hg1 mi
2:30 pm86 °FFog.5 mph89%29.56 "Hg1 mi
2:00 pm84 °FFog.6 mph94%29.56 "Hg1 mi
1:30 pm84 °FDrizzle. Cloudy.2 mph94%29.59 "Hg1 mi
1:00 pm84 °FLight rain. More clouds than sun.2 mph100%29.59 "Hg1 mi
12:30 pm84 °FDrizzle. Cloudy.3 mph94%29.59 "Hg1 mi
12:00 pm84 °FDrizzle. Cloudy.6 mph94%29.59 "Hg1 mi
11:30 am82 °FFog.3 mph100%29.62 "Hg1 mi
11:00 am82 °FFog.5 mph100%29.62 "Hg1 mi
10:30 am81 °FFog.2 mph100%29.62 "Hg1 mi
10:00 am79 °FDrizzle. Cloudy.5 mph100%29.62 "Hg1 mi
9:30 am79 °FDrizzle. Cloudy.5 mph100%29.62 "Hg1 mi
9:00 am81 °FDrizzle. More clouds than sun.3 mph100%29.62 "Hg1 mi
8:30 am81 °FDrizzle. More clouds than sun.5 mph100%29.59 "Hg1 mi
8:00 am81 °FRain. More clouds than sun.3 mph100%29.59 "Hg1 mi
7:30 am81 °FRain. More clouds than sun.3 mph94%29.59 "Hg1 mi
7:00 am79 °FRain. More clouds than sun.3 mph100%29.59 "Hg1 mi
6:30 am81 °FLight rain. Mostly cloudy.3 mph94%29.59 "Hg1 mi
6:00 am81 °FFog.2 mph94%29.56 "Hg1 mi
5:00 am81 °FFog.3 mph94%29.56 "Hg1 mi
4:30 am81 °FFog.6 mph94%29.56 "Hg1 mi
4:00 am81 °FDrizzle. Overcast.6 mph94%29.56 "Hg1 mi
3:30 am79 °FDrizzle. Overcast.7 mph100%29.56 "Hg1 mi
3:00 am79 °FDrizzle. Overcast.6 mph100%29.56 "Hg1 mi
2:30 am79 °FDrizzle. Overcast.3 mph100%29.56 "Hg1 mi
2:00 am79 °FDrizzle. Overcast.5 mph100%29.56 "Hg1 mi
1:30 am79 °FDrizzle. Mostly cloudy.6 mph100%29.56 "Hg1 mi
1:00 am79 °FLight rain. Mostly cloudy.5 mph100%29.59 "Hg1 mi
12:30 am79 °FLight rain. Mostly cloudy.6 mph100%29.59 "Hg1 mi
12:00 am79 °FLight rain. Mostly cloudy.7 mph100%29.59 "Hg1 mi
11:30 pm
Sun, Aug 9
79 °FLight rain. Mostly cloudy.7 mph100%29.59 "Hg1 mi
11:00 pm77 °FLight rain. Mostly cloudy.7 mph100%29.59 "Hg1 mi
10:30 pm79 °FLight rain. Mostly cloudy.12 mph100%29.59 "Hg1 mi
10:00 pm79 °FRain. Mostly cloudy.10 mph100%29.59 "Hg1 mi
Weather by CustomWeather, © 2020

See weather overview